Weather History for CYQL - November, 2012

Change the Weather History Date:

Monday, November 5, 2012

  Actual Average Record
Temperature  
Mean Temperature 54 °F -  
Max Temperature 64 °F 38 °F 71 °F (2010)
Min Temperature 44 °F 18 °F -16 °F (2003)
Degree Days  
Heating Degree Days 11    
Growing Degree Days 4 (Base 50)    
Moisture  
Dew Point 36 °F    
Average Humidity 48    
Maximum Humidity 66    
Minimum Humidity 24    
Precipitation  
Precipitation 0.00 in 0.02 in - ()
Sea Level Pressure  
Sea Level Pressure 29.96 in    
Wind  
Wind Speed 22 mph ()    
Max Wind Speed 44 mph    
Max Gust Speed 59 mph    
Visibility 11.5 miles    
Events      
Averages and records for this station are not official NWS values.
T = Trace of Precipitation, MM = Missing Value Source: Averaged Metar Reports

Daily Weather History Graph

Daily Weather History Graph

Search for Another Location

Airport or City:

Trip Planner

Search our weather history database for the weather conditions in past years. The results will help you decide how hot, cold, wet, or windy it might be!

Date:

Astronomy

Nov. 05, 2012 Rise Set
Actual Time 7:27 AM MST 5:01 PM MST
Civil Twilight 6:53 AM MST 5:35 PM MST
Nautical Twilight 6:15 AM MST 6:13 PM MST
Astronomical Twilight 5:37 AM MST 6:51 PM MST
Moon 10:44 PM MST (11/5) 12:49 PM MST (11/5)
Length of Visible Light 10h 42m
Length of Day
9h 33m
Waning Gibbous, 62% of the Moon is Illuminated
Nov 5
Waning Gibbous
Nov 6
Last Quarter
Nov 13
New
Nov 20
First Quarter
Nov 28
Full

Hourly Weather History & Observations

Time (MST) Temp. Windchill Dew Point Humidity Pressure Visibility Wind Dir Wind Speed Gust Speed Precip Events Conditions
12:00 AM 55.4 °F - 41.0 °F 58% 30.00 in 9.0 mi SSW 21.9 mph - N/A   Scattered Clouds
1:00 AM 53.6 °F - 41.0 °F 62% 29.97 in 9.0 mi SW 16.1 mph - N/A   Mostly Cloudy
1:47 AM 55.4 °F - 41.0 °F 58% 29.94 in 9.0 mi WSW 27.6 mph 38.0 mph N/A   Clear
2:00 AM 57.2 °F - 41.0 °F 55% 29.92 in 9.0 mi WSW 25.3 mph 32.2 mph N/A   Clear
3:00 AM 55.4 °F - 41.0 °F 58% 29.91 in 9.0 mi West 19.6 mph - N/A   Partly Cloudy
3:19 AM 53.6 °F - 41.0 °F 62% 29.89 in 9.0 mi SSW 11.5 mph - N/A   Clear
3:55 AM 57.2 °F - 41.0 °F 55% 29.84 in 9.0 mi WSW 23.0 mph - N/A   Scattered Clouds
4:00 AM 57.2 °F - 41.0 °F 55% 29.84 in 9.0 mi WSW 27.6 mph - N/A   Scattered Clouds
4:17 AM 60.8 °F - 41.0 °F 48% 29.82 in 9.0 mi WSW 42.6 mph 50.6 mph N/A   Partly Cloudy
5:00 AM 59 °F - 42 °F 43% 29.81 in 10 mi SW 31.1 mph - -  
5:16 AM 60.8 °F - 41.0 °F 48% 29.77 in 9.0 mi WSW 43.7 mph 58.7 mph N/A   Clear
6:00 AM 60.8 °F - 41.0 °F 48% 29.84 in 15.0 mi WSW 31.1 mph 39.1 mph N/A   Mostly Cloudy
7:00 AM 59.0 °F - 41.0 °F 51% 29.85 in 15.0 mi WSW 31.1 mph 43.7 mph N/A   Mostly Cloudy
8:00 AM 57.2 °F - 42.8 °F 59% 29.88 in 20.0 mi West 29.9 mph 38.0 mph N/A   Mostly Cloudy
9:00 AM 59.0 °F - 39.2 °F 48% 29.89 in 30.0 mi West 34.5 mph 46.0 mph N/A   Mostly Cloudy
10:00 AM 59.0 °F - 39.2 °F 48% 29.90 in 30.0 mi West 34.5 mph 50.6 mph N/A   Mostly Cloudy
11:00 AM 62 °F - 35 °F 24% 29.96 in 10 mi West 31.1 mph - -  
11:00 AM 62.6 °F - 35.6 °F 37% 29.95 in 40.0 mi West 31.1 mph 44.9 mph N/A   Mostly Cloudy
12:00 PM 62.6 °F - 33.8 °F 34% 29.97 in 40.0 mi West 29.9 mph 43.7 mph N/A   Mostly Cloudy
1:00 PM 64.4 °F - 30.2 °F 28% 29.98 in 40.0 mi West 32.2 mph 42.6 mph N/A   Scattered Clouds
2:00 PM 62.6 °F - 28.4 °F 27% 29.98 in 40.0 mi West 31.1 mph 40.3 mph N/A   Mostly Cloudy
3:00 PM 62.6 °F - 28.4 °F 27% 29.97 in 40.0 mi West 29.9 mph 41.4 mph N/A   Scattered Clouds
4:00 PM 53.6 °F - 33.8 °F 47% 30.03 in 40.0 mi North 6.9 mph 28.8 mph N/A   Scattered Clouds
5:00 PM 46 °F - 36 °F 59% 30.08 in 10 mi NNE 3.5 mph - -  
5:00 PM 46.4 °F 45.2 °F 35.6 °F 66% 30.08 in 40.0 mi NW 3.5 mph - N/A   Scattered Clouds
6:00 PM 51.8 °F - 30.2 °F 44% 30.06 in 15.0 mi WNW 11.5 mph - N/A   Scattered Clouds
7:00 PM 50.0 °F - 28.4 °F 43% 30.10 in 15.0 mi West 13.8 mph 25.3 mph N/A   Partly Cloudy
8:00 PM 51.8 °F - 28.4 °F 41% 30.10 in 15.0 mi West 20.7 mph 28.8 mph N/A   Partly Cloudy
9:00 PM 48.2 °F - 28.4 °F 46% 30.12 in 15.0 mi West 16.1 mph - N/A   Partly Cloudy
10:00 PM 44.6 °F 38.4 °F 28.4 °F 53% 30.14 in 15.0 mi West 12.7 mph - N/A   Clear
11:00 PM 44 °F - 28 °F 41% 30.14 in 10 mi West 18.4 mph - -  
11:00 PM 44.6 °F 37.2 °F 28.4 °F 53% 30.14 in 9.0 mi West 17.3 mph - N/A   Clear